Flag for U.S.A. Weather past 2 weeks in Chandler, Arizona, U.S.A.

Now
72 °F

Scattered clouds.


Feels Like: 71 °F
Forecast: 74 / 93 °F
Wind: No wind

Location: Chandler Municipal Airport

Current Time: Aug 22, 2014 at 7:50:35 AM

Latest Report: Aug 22, 2014 at 6:47 AM


Visibility: 40 mi

Pressure: 29.99 "Hg

Humidity: 83%

Dew point: 66 °F

Location of ChandlerLocation

Historic Weather in Chandler — Graph

°F

Chandler temperature yesterday

Maximum temperature yesterday: 88 °F (at 10:47 AM)
Minimum temperature yesterday: 75 °F (at 8:47 PM)
Average temperature yesterday: 84 °F

Past Weeks' High & Low Weather Summary

 TemperatureHumidityPressure
High106 °F (Aug 17, 3:47 PM)89% (Aug 12, 5:47 PM)30.01 "Hg (Aug 12, 5:47 PM)
Low70 °F (Aug 22, 5:47 AM)9% (Aug 7, 2:47 PM)29.76 "Hg (Aug 17, 5:47 PM)
Average91 °F41%29.91 "Hg
* Reported Aug 7 6:47 AM — Aug 22 6:47 AM, Chandler, Weather by CustomWeather, © 2014

Note: Actual official high and low records may vary slightly from our data, if they occured in-between our weather recording intervals... More about our weather records

Advertising

Chandler weather history for previous 24 hours

 ConditionsComfort  
Time TempWeatherWind HumidityBarometerVisibility
6:47 AM
Aug 22
72 °FScattered clouds.No wind83%29.99 "Hg40 mi
5:47 AM70 °FPassing clouds.3 mph83%29.98 "Hg15 mi
8:47 PM
Aug 21
75 °FPassing clouds.25 mph69%29.99 "Hg15 mi
8:25 PM77 °FPassing clouds.23 mph65%29.97 "Hg15 mi
8:15 PM84 °FPassing clouds.29 mph45%29.96 "Hg2 mi
7:47 PM86 °FPassing clouds.5 mph38%29.92 "Hg15 mi
6:47 PM86 °FPartly sunny.5 mph40%29.90 "Hg30 mi
5:47 PM88 °FPartly sunny.5 mph38%29.90 "Hg30 mi
3:47 PM88 °FPartly sunny.5 mph35%29.91 "Hg30 mi
2:47 PM86 °FScattered showers. Partly sunny.9 mph38%29.94 "Hg30 mi
1:47 PM86 °FScattered showers. Partly sunny.13 mph40%29.95 "Hg30 mi
12:47 PM84 °FScattered showers. Mostly cloudy.10 mph43%29.98 "Hg30 mi
11:47 AM84 °FPartly sunny.17 mph40%29.97 "Hg30 mi
10:47 AM88 °FScattered showers. Partly sunny.17 mph38%29.98 "Hg30 mi
9:47 AM84 °FBroken clouds.6 mph45%29.97 "Hg40 mi
8:47 AM84 °FPartly sunny.6 mph45%29.95 "Hg40 mi
7:47 AM81 °FPartly sunny.3 mph58%29.94 "Hg40 mi
Weather by CustomWeather, © 2014

See weather overviewHow to use our weather pages